Погода в Белушьем

Россия / Ненецкий автономный округ     66°53′34″N   47°36′29″E
темп.,
°C
ветер,
м/с
пор.,
м/с
влажн.,
%
обл.,
%
осадки,
мм/ч
давл.,
гПа
погр.,
м
6 декабря, пн
пн600:00−8з71282100 0.0 1020284
03:00−9з81482100 0.0 1019287
06:00−9з8148478 0.0 1018315
09:00−9з9158597 0.0 1018345
12:00−9з9158476 0.0 1018381
15:00−9з9158181 0.0 1018376
18:00−9з9158794 0.0 1018372
21:00−7з101694100 0.6 1018473
7 декабря, вт
вт700:00−7з101593100 0.5 1018432
03:00−7з9149197 0.8 1019433
06:00−8зюз81492100 0.3 1020448
09:00−6з91394100 1.1 1021444
12:00−7зюз71288100 0.3 1023387
15:00−8зюз71289100 0.4 1025325
18:00−10юз6109292 0.0 1026197
21:00−11юз599492 0.1 1027173
8 декабря, ср
ср800:00−13юз489613 0.0 1028101
03:00−15ююз469517 0.0 102876
06:00−17ююв46925 0.0 102867
09:00−18юв46934 0.0 102761
12:00−16юв47863 0.0 102576
15:00−16вюв47841 0.0 102386
18:00−15вюв488740 0.0 1022103
21:00−13вюв4789100 0.0 1020142
9 декабря, чт
чт900:00−11вюв4695100 0.3 1020186
03:00−10юв3495100 1.0 1019192
06:00−11ююв3496100 0.5 1019139
09:00−12ю349697 0.6 1019152
12:00−13ю349882 0.1 1019100
15:00−13ю349881 0.1 1019113
18:00−13ю359788 0.1 1019137
21:00−13ююз359792 0.1 1019160
10 декабря, пт
пт1000:00−12ююз469699 0.1 1019181
03:00−11ююз579698 0.2 1018183
06:00−8ю5896100 0.8 1017198
09:00−7з2798100 1.4 1019267
12:00−5з8138771 0.4 1021204
15:00−6з7129290 0.4 1023190
18:00−6з6119123 0.0 1025160
21:00−7з610905 0.0 1026151